Regional Weather Roundup
Issued by NWS

Home | Current Version | Previous Version | Text Only | Print | Product List | Glossary On
Versions: 1 2 3 4 5 6 7 8 9 10 11 12 13 14 15 16 17 18 19 20 21 22 23 24 25 26 27 28 29 30 31 32 33 34 35 36 37 38 39 40 41 42 43 44 45 46 47 48 49 50
000
ASUS43 KDTX 111010
RWRMI
MICHIGAN HOURLY REGIONAL WEATHER ROUNDUP
NATIONAL WEATHER SERVICE DETROIT/PONTIAC MI
500 AM EST THU FEB 11 2016

NOTE: "FAIR" INDICATES FEW OR NO CLOUDS BELOW 12,000 FEET WITH NO
SIGNIFICANT WEATHER AND/OR OBSTRUCTION TO VISIBILITY.

MIZ047>049-052>055-059>063-066>070-074>076-081>083-111100-
SOUTHEAST LOWER MICHIGAN

CITY           SKY/WX    TMP DP  RH WIND       PRES   REMARKS
ADRIAN         MOCLDY    13   4  67 NW5       30.10R WCI   5
ALMA           CLEAR     11   7  85 W7        30.08R WCI   0
ANN ARBOR      CLOUDY     7   3  84 W3        30.07R
BAD AXE        CLOUDY     9   4  79 W10       30.04R WCI  -5
CARO           CLOUDY     7   1  78 W6        30.05R WCI  -3
DETROIT CITY   MOCLDY    11   2  67 NW3       30.07S
DETROIT        PTCLDY    11   4  73 W9        30.09R WCI  -2
FLINT          MOCLDY     9   2  73 W9        30.06R WCI  -4
GROSSE ILE     PTCLDY    12   7  79 W6        30.08R WCI   3
HILLSDALE      CLOUDY    12   6  74 W5        30.06R WCI   5
HOWELL         PTCLDY     8   5  87 W8        30.05S WCI  -5

CITY           SKY/WX    TMP DP  RH WIND       PRES   REMARKS
JACKSON        CLOUDY    11   5  77 W7        30.08R WCI   0
LAMBERTVILLE   CLOUDY    13   6  74 NW3       30.11R
LANSING        PTCLDY    12   5  73 NW8       30.09R WCI   0
LAPEER         CLOUDY     8   3  80 W5        30.04S WCI  -1
MASON          MOCLDY    13   7  76 NW6       30.07S WCI   4
MONROE         MOCLDY    10   4  74 W5        30.09S WCI   2
MT. CLEMENS    PTCLDY     9   1  68 W8        30.05R WCI  -3
PONTIAC        CLEAR      7   2  80 W9        30.03R WCI  -7
PORT HOPE        N/A     12   5  73 NW20G31   30.01R WCI  -6
PORT HURON     CLEAR      7   0  72 W8        30.04R WCI  -6
TRI CITIES     MOCLDY    12   4  70 W9        30.07R WCI   0
MIDLAND        MOCLDY    11   4  72 W7        30.07R WCI   0
TROY           PTCLDY    13   6  74 W7        30.07S WCI   2
SAGINAW HB     CLOUDY    12   9  85 W9        30.06S WCI   0
$$
MIZ043>046-050>051-056>058-064>065-071>073-077>080-111100-
SOUTHWEST LOWER MICHIGAN

CITY           SKY/WX    TMP DP  RH WIND       PRES   REMARKS
BATTLE CREEK   PTCLDY     9   6  88 W5        30.10R WCI   1
BENTON HARBOR  LGT SNOW  19  10  68 VRB5G20   30.14R WCI  12
BIG RAPIDS     PTCLDY    11   7  85 W6        30.06R WCI   1
COLDWATER      CLOUDY    14   9  80 W5        30.10R WCI   6
FREMONT        CLOUDY    14   8  77 NW5       30.11R WCI   6
HOLLAND        LGT SNOW  15  10  80 N6        30.14R VSB 1   WCI   6
GRAND RAPIDS   PTCLDY    14   6  70 NW8       30.11R WCI   3
IONIA          CLOUDY    13   5  68 NW8       30.09R WCI   2
KALAMAZOO      CLOUDY    14   8  77 W6        30.11R WCI   5
LUDINGTON      CLOUDY    16   5  63 NW9G18    30.12S WCI   4
MARSHALL       PTCLDY     9   5  84 W5        30.09R WCI   1
MOUNT PLEASANT CLEAR     10   4  76 W3        30.06R
MUSKEGON       LGT SNOW  15   8  73 N8        30.14R WCI   4
SOUTH HAVEN    CLOUDY    15  11  85 CALM      30.13R
$$
MIZ016>042-111100-
NORTHERN LOWER MICHIGAN

CITY           SKY/WX    TMP DP  RH WIND       PRES   REMARKS
ALPENA         MIX PCPN   7   0  73 NW12G21   30.04R WCI  -8
BEAVER ISLAND  CLOUDY    10   3  74 N9        30.09R WCI  -3
BELLAIRE       LGT SNOW   9   5  86 CALM      30.08R
CADILLAC       FLURRIES  11   6  81 NW10      30.00R WCI  -2
CHARLEVOIX     MOCLDY    13   6  73 N18G26    30.09R WCI  -4
FRANKFORT      CLOUDY    15   5  63 NW15      30.10S WCI   0
GAYLORD        CLOUDY     3  -2  79 VRB3      29.99R
GRAYLING       PTCLDY   -10 -15  79 CALM      30.02R
HARBOR SPRINGS CLOUDY     5   0  78 CALM      30.07R
HOUGHTON LAKE  CLOUDY     7   2  80 N3        30.01R
MANISTEE       CLOUDY    16   3  57 NW14G24   30.11R WCI   1
OSCODA         CLOUDY     4  -2  78 NW7       30.04R WCI  -9
PELLSTON       CLOUDY     4  -1  80 NW5       30.08R WCI  -5
ROGERS CITY    LGT SNOW   7   1  79 NW14G21   30.06R WCI -10
TRAVERSE CITY  LGT SNOW  16   7  67 NW10G21   30.06R WCI   4
$$
MIZ007>008-015-111100-
EASTERN UPPER MICHIGAN

CITY           SKY/WX    TMP DP  RH WIND       PRES   REMARKS
KINROSS        CLOUDY    -4  -9  77 N7        30.07R WCI -18
MACKINAC ISLAN CLOUDY     1  -3  83 N7        30.07R WCI -12
NEWBERRY       CLOUDY     5   1  84 NW6       30.06R FOG     WCI  -5
S. S. MARIE    PTCLDY    -6 -15  65 N8        30.09R WCI -21
MUNISING         N/A     13   2  61 N16       30.11R WCI  -3
$$
MIZ004>006-011>014-085-111100-
CENTRAL UPPER MICHIGAN

CITY           SKY/WX    TMP DP  RH WIND       PRES   REMARKS
MANISTIQUE     LGT SNOW   5   2  86 CALM      30.09S VSB 1
ESCANABA       CLEAR      7   0  72 NW9       30.13R WCI  -7
MENOMINEE      CLEAR      3  -4  72 NW3       30.17R
SAWYER-GWINN   CLOUDY     4  -1  79 NW10      30.08R WCI -11
$$
MIZ001>003-009>011-084-111100-
WESTERN UPPER MICHIGAN

CITY           SKY/WX    TMP DP  RH WIND       PRES   REMARKS
IRON MOUNTAIN  CLOUDY     7  -3  64 NW10      30.12R WCI  -8
HOUGHTON       LGT SNOW   7   1  76 N7        30.13S WCI  -5
COPPER HARBOR    N/A     11   4  73 N18       30.15R WCI  -7
IRONWOOD       CLOUDY     3   0  85 W13       30.15R WCI -14
$$

ABBREVIATIONS USED IN REMARKS
   TC - TEMPERATURE IN CELSIUS
  WCI - WIND CHILL INDEX
   HX - HEAT INDEX
  VSB - VISIBILITY




USA.gov is the U.S. government's official web portal to all federal, state and local government web resources and services.